User: anonymous   Login
Location: Cherry Springs State Park
(41.6616°N, 77.8240°W)
Time: 05:11:47
(UTC-05:00)
Language:

Cosmos 1437 - Orbit

View from above orbital plane
View from above orbital plane
View from above satellite
View from above satellite

Ground track
Ground track

The orbit data is extracted from the following two-line orbital elements,

1 13770U 83003A   15024.44364334  .00008041  00000-0  22880-3 0  7584
2 13770 081.1645 131.9757 0009351 079.6089 325.5401 15.35937906751477
Epoch (UTC): 24 January 2015 10:38:50
Eccentricity: 0.0009351
inclination: 81.1645°
perigee height: 452 km
apogee height: 464 km
right ascension of ascending node: 131.9757°
argument of perigee: 79.6089°
revolutions per day: 15.35937906
mean anomaly at epoch: 325.5401°
orbit number at epoch: 75147

The dashed part of the orbit path shows where the satellite is in the earth's shadow,  

DLR